User: anonymous   Login
Location: Newark
(47.5833°N, 8.1500°E)
Time: 21:03:21
(UTC+00:00)
Language:

A-11 Canister half - Orbit

View from above orbital plane
View from above orbital plane
View from above satellite
View from above satellite

Ground track
Ground track

The orbit data is extracted from the following two-line orbital elements,

1    51U 60009C   20301.94799766 -.00000119 +00000-0 -33115-3 0  9993
2    51 047.2134 297.5129 0106392 198.3712 161.3218 12.18273314680240
Epoch (UTC): 27 October 2020 22:45:06
Eccentricity: 0.0106392
inclination: 47.2134°
perigee height: 1515 km
apogee height: 1685 km
right ascension of ascending node: 297.5129°
argument of perigee: 198.3712°
revolutions per day: 12.18273314
mean anomaly at epoch: 161.3218°
orbit number at epoch: 68024

The dashed part of the orbit path shows where the satellite is in the earth's shadow,  

DLR